Location: Brownlee
(50.7397°N, 106.0159°W)
Time: 08:04:40
(UTC+00:00)

Envisat - Pass Details

Date: 02 December 2022
Orbit: 763 x 765 km, 98.2° (Epoch: 04 February)

Event Time Altitude Azimuth Distance (km) Brightness Sun altitude
Rises 09:58:04 0° 27° (NNE) 3,246 6.7 -44.1°
Reaches altitude 10° 10:01:18 10° 49° (NE) 2,313 6.0 -43.7°
Enters shadow 10:01:54 12° 55° (NE) 2,183 5.9 -43.6°
